Cruise inventory

RV Corystes COR6/88

Cruise summary report

Cruise Info. 
Ship name (ship code)RV Corystes (74RY)
Cruise identifierCOR6/88
Cruise period1988-08-31 — 1988-09-13
StatusCompleted
Port of departureLowestoft, United Kingdom
Port of returnLowestoft, United Kingdom
Objectives1. To collect water and sediment samples for a study of scavenging using U/Th disequilibrium data.
2. To work a series of 25 h anchor stations (CTD and DRCM) at four locations along the coast, with the NBVR deployed. Suspended load and particle size measurements will be made over the tidal cycle at 10m intervals along the bed.
3. To investigate settling velocity near the seabed using QUISSET (U. Cambridge).
4. To use the diving team at one anchor station to measure bed roughness using an acoustic backscatter probe. This aim was discarded before the cruise.
5. To work a grid of CTD stations around the moorings E-M launched by RV Cirolana as part of of the Flamborough Front Experiment.
6. Service the current meter moorings E-M.
7. To recover moorings N-S, including a Wavec buoy.
8. To lay and recover a short-term test rig incorporating an RCM7/RCM48 intercomparison and a thermistor chain at maximum data rate to provide information on internal wave activity.
9. To collect a bulk fine-sediment sample for Mr Lloyd.
Chief scientistSteven M Rowlatt (Ministry of Agriculture, Fisheries and Food Burnham Laboratory)
Cruise reportRV Corystes COR6/88 cruise report co6_88.pdf — access key 'C' (0.11 MB) 
Ocean/sea areas 
GeneralNorth Sea
SpecificNorth East coast
Measurements 
Physical oceanography 
CTD stationsQuantity: number of stations = 173
Description: of which 96 were taken during four anchor stations
Current metersQuantity: number of recoveries = 23
Description: current meters recovered; 17 deployed
Surface drifters/drifting buoysQuantity: number of recoveries = 1
Description: wave buoy recovered
Other physical oceanographic measurementsQuantity: number of deployments = 6
Description: near bed velocity recorder
Contamination 
Suspended matterQuantity: number of stations = 3
Geology and geophysics 
GrabQuantity: number of samples = 10
Core - soft bottomQuantity: number of cores = 7
Data held at BODC 
Series/Profiles 
173  CTD/STD cast
Vertical spatial coordinates
Salinity of the water column
Temperature of the water column
Vertical spatial coordinates
Salinity of the water column
Temperature of the water column

BODC idDate/TimeLocationDoc.
1840311988-09-12 14:57 54° 42' 23" N  0° 59' 47" W  View metadata report for BODC series reference number 184031
1840431988-09-12 15:19 54° 40' 29" N  1° 1' 29" W  View metadata report for BODC series reference number 184043
1840551988-09-12 15:36 54° 38' 53" N  1° 2' 35" W  View metadata report for BODC series reference number 184055
1838751988-09-12 08:54 54° 39' 35" N  0° 50' 35" W  View metadata report for BODC series reference number 183875
1838871988-09-12 09:16 54° 37' 41" N  0° 52' 23" W  View metadata report for BODC series reference number 183887
1838991988-09-12 09:35 54° 36' 5" N  0° 53' 53" W  View metadata report for BODC series reference number 183899
1839061988-09-12 10:03 54° 37' 41" N  0° 58' 30" W  View metadata report for BODC series reference number 183906
1839181988-09-12 10:21 54° 38' 59" N  0° 56' 47" W  View metadata report for BODC series reference number 183918
1839311988-09-12 10:55 54° 40' 59" N  0° 54' 54" W  View metadata report for BODC series reference number 183931
1839431988-09-12 11:22 54° 42' 47" N  0° 53' 6" W  View metadata report for BODC series reference number 183943
1839551988-09-12 11:46 54° 44' 29" N  0° 51' 36" W  View metadata report for BODC series reference number 183955
1839671988-09-12 12:12 54° 46' 17" N  0° 49' 47" W  View metadata report for BODC series reference number 183967
1839791988-09-12 12:41 54° 48' 11" N  0° 48' 18" W  View metadata report for BODC series reference number 183979
1839801988-09-12 13:29 54° 49' 17" N  0° 52' 35" W  View metadata report for BODC series reference number 183980
1839921988-09-12 13:52 54° 47' 35" N  0° 54' 54" W  View metadata report for BODC series reference number 183992
1840061988-09-12 14:13 54° 45' 47" N  0° 56' 23" W  View metadata report for BODC series reference number 184006
1840181988-09-12 14:35 54° 43' 30" N  0° 57' 29" W  View metadata report for BODC series reference number 184018
1832731988-09-11 10:01 54° 45' 23" N  0° 10' 17" W  View metadata report for BODC series reference number 183273
1832851988-09-11 10:25 54° 43' 35" N  0° 11' 53" W  View metadata report for BODC series reference number 183285
1832971988-09-11 10:51 54° 41' 42" N  0° 13' 59" W  View metadata report for BODC series reference number 183297
1833041988-09-11 11:24 54° 39' 59" N  0° 15' 36" W  View metadata report for BODC series reference number 183304
1833161988-09-11 12:02 54° 38' 11" N  0° 17' 17" W  View metadata report for BODC series reference number 183316
1833281988-09-11 12:48 54° 36' 41" N  0° 18' 47" W  View metadata report for BODC series reference number 183328
1833411988-09-11 13:11 54° 34' 41" N  0° 20' 29" W  View metadata report for BODC series reference number 183341
1833531988-09-11 13:33 54° 32' 42" N  0° 21' 41" W  View metadata report for BODC series reference number 183353
1833651988-09-11 13:55 54° 31' 17" N  0° 24' 11" W  View metadata report for BODC series reference number 183365
1833771988-09-11 14:16 54° 29' 11" N  0° 25' 41" W  View metadata report for BODC series reference number 183377
1833891988-09-11 14:40 54° 27' 36" N  0° 26' 53" W  View metadata report for BODC series reference number 183389
1833901988-09-11 15:01 54° 26' 6" N  0° 28' 30" W  View metadata report for BODC series reference number 183390
1834081988-09-11 15:40 54° 28' 59" N  0° 31' 17" W  View metadata report for BODC series reference number 183408
1834211988-09-11 16:30 54° 30' 35" N  0° 30' 11" W  View metadata report for BODC series reference number 183421
1834331988-09-11 16:55 54° 32' 35" N  0° 27' 54" W  View metadata report for BODC series reference number 183433
1834451988-09-11 17:15 54° 34' 17" N  0° 26' 35" W  View metadata report for BODC series reference number 183445
1834571988-09-11 17:39 54° 36' 5" N  0° 24' 53" W  View metadata report for BODC series reference number 183457
1834691988-09-11 18:00 54° 37' 53" N  0° 23' 6" W  View metadata report for BODC series reference number 183469
1834701988-09-11 18:35 54° 42' 41" N  0° 24' 18" W  View metadata report for BODC series reference number 183470
1834821988-09-11 18:54 54° 40' 59" N  0° 25' 48" W  View metadata report for BODC series reference number 183482
1834941988-09-11 19:16 54° 39' 11" N  0° 27' 29" W  View metadata report for BODC series reference number 183494
1835011988-09-11 19:37 54° 37' 30" N  0° 29' 5" W  View metadata report for BODC series reference number 183501
1835131988-09-11 20:02 54° 35' 41" N  0° 30' 59" W  View metadata report for BODC series reference number 183513
1835251988-09-11 20:31 54° 33' 47" N  0° 32' 42" W  View metadata report for BODC series reference number 183525
1835371988-09-11 20:54 54° 32' 5" N  0° 34' 30" W  View metadata report for BODC series reference number 183537
1835491988-09-11 21:14 54° 30' 35" N  0° 36' 0" W  View metadata report for BODC series reference number 183549
1835501988-09-11 21:44 54° 32' 5" N  0° 40' 5" W  View metadata report for BODC series reference number 183550
1835621988-09-11 22:03 54° 33' 23" N  0° 38' 53" W  View metadata report for BODC series reference number 183562
1835741988-09-11 22:26 54° 35' 29" N  0° 37' 5" W  View metadata report for BODC series reference number 183574
1835861988-09-11 22:47 54° 37' 11" N  0° 35' 29" W  View metadata report for BODC series reference number 183586
1835981988-09-11 23:10 54° 38' 59" N  0° 33' 47" W  View metadata report for BODC series reference number 183598
1836051988-09-11 23:32 54° 40' 47" N  0° 32' 6" W  View metadata report for BODC series reference number 183605
1836171988-09-11 23:55 54° 42' 29" N  0° 30' 29" W  View metadata report for BODC series reference number 183617
1836291988-09-12 00:19 54° 44' 5" N  0° 28' 47" W  View metadata report for BODC series reference number 183629
1836301988-09-12 00:50 54° 45' 41" N  0° 32' 53" W  View metadata report for BODC series reference number 183630
1836421988-09-12 01:15 54° 43' 59" N  0° 34' 41" W  View metadata report for BODC series reference number 183642
1836541988-09-12 01:44 54° 42' 5" N  0° 36' 36" W  View metadata report for BODC series reference number 183654
1836661988-09-12 02:12 54° 40' 17" N  0° 37' 53" W  View metadata report for BODC series reference number 183666
1836781988-09-12 02:37 54° 38' 29" N  0° 39' 29" W  View metadata report for BODC series reference number 183678
1836911988-09-12 03:00 54° 36' 59" N  0° 41' 6" W  View metadata report for BODC series reference number 183691
1837091988-09-12 03:24 54° 34' 47" N  0° 43' 11" W  View metadata report for BODC series reference number 183709
1837101988-09-12 03:45 54° 33' 36" N  0° 44' 35" W  View metadata report for BODC series reference number 183710
1837221988-09-12 04:17 54° 34' 41" N  0° 49' 53" W  View metadata report for BODC series reference number 183722
1837341988-09-12 04:31 54° 36' 5" N  0° 47' 42" W  View metadata report for BODC series reference number 183734
1837461988-09-12 04:50 54° 37' 59" N  0° 45' 59" W  View metadata report for BODC series reference number 183746
1837581988-09-12 05:10 54° 39' 41" N  0° 44' 29" W  View metadata report for BODC series reference number 183758
1837711988-09-12 05:30 54° 41' 35" N  0° 42' 53" W  View metadata report for BODC series reference number 183771
1837831988-09-12 05:49 54° 43' 30" N  0° 40' 59" W  View metadata report for BODC series reference number 183783
1837951988-09-12 06:08 54° 45' 18" N  0° 39' 29" W  View metadata report for BODC series reference number 183795
1838021988-09-12 06:25 54° 46' 41" N  0° 37' 47" W  View metadata report for BODC series reference number 183802
1838141988-09-12 06:54 54° 48' 11" N  0° 42' 11" W  View metadata report for BODC series reference number 183814
1838261988-09-12 07:23 54° 46' 29" N  0° 43' 53" W  View metadata report for BODC series reference number 183826
1838381988-09-12 07:43 54° 44' 53" N  0° 45' 23" W  View metadata report for BODC series reference number 183838
1838511988-09-12 08:07 54° 43' 5" N  0° 46' 59" W  View metadata report for BODC series reference number 183851
1838631988-09-12 08:32 54° 41' 11" N  0° 48' 36" W  View metadata report for BODC series reference number 183863
1831191988-09-07 09:46 54° 59' 5" N  1° 21' 5" W  View metadata report for BODC series reference number 183119
1831201988-09-08 16:40 55° 15' 47" N  1° 29' 29" W  View metadata report for BODC series reference number 183120
1831321988-09-09 07:50 55° 1' 12" N  1° 22' 47" W  View metadata report for BODC series reference number 183132
1831441988-09-09 08:53 55° 1' 12" N  1° 22' 59" W  View metadata report for BODC series reference number 183144
1831561988-09-09 09:59 54° 57' 29" N  1° 12' 23" W  View metadata report for BODC series reference number 183156
1831681988-09-09 12:10 54° 57' 11" N  1° 15' 17" W  View metadata report for BODC series reference number 183168
1831811988-09-09 14:08 54° 56' 47" N  1° 17' 5" W  View metadata report for BODC series reference number 183181
1831931988-09-09 15:30 54° 55' 59" N  1° 18' 47" W  View metadata report for BODC series reference number 183193
1832001988-09-09 16:58 54° 55' 59" N  1° 20' 11" W  View metadata report for BODC series reference number 183200
1832121988-09-11 07:45 54° 39' 35" N  0° 21' 29" W  View metadata report for BODC series reference number 183212
1832241988-09-11 08:08 54° 41' 17" N  0° 19' 35" W  View metadata report for BODC series reference number 183224
1832361988-09-11 08:36 54° 43' 11" N  0° 18' 0" W  View metadata report for BODC series reference number 183236
1832481988-09-11 09:05 54° 45' 0" N  0° 16' 12" W  View metadata report for BODC series reference number 183248
1832611988-09-11 09:30 54° 46' 41" N  0° 14' 41" W  View metadata report for BODC series reference number 183261
1825091988-09-06 01:30 54° 49' 17" N  1° 15' 11" W  View metadata report for BODC series reference number 182509
1825101988-09-06 02:30 54° 49' 17" N  1° 15' 11" W  View metadata report for BODC series reference number 182510
1825221988-09-06 03:30 54° 49' 17" N  1° 15' 17" W  View metadata report for BODC series reference number 182522
1825341988-09-06 04:30 54° 49' 17" N  1° 15' 11" W  View metadata report for BODC series reference number 182534
1825461988-09-06 05:30 54° 49' 17" N  1° 15' 11" W  View metadata report for BODC series reference number 182546
1825581988-09-06 06:30 54° 49' 17" N  1° 15' 11" W  View metadata report for BODC series reference number 182558
1825711988-09-06 07:30 54° 49' 17" N  1° 15' 11" W  View metadata report for BODC series reference number 182571
1825831988-09-06 08:30 54° 49' 17" N  1° 15' 11" W  View metadata report for BODC series reference number 182583
1825951988-09-06 09:30 54° 49' 17" N  1° 15' 11" W  View metadata report for BODC series reference number 182595
1826021988-09-06 10:30 54° 49' 17" N  1° 15' 11" W  View metadata report for BODC series reference number 182602
1826141988-09-06 11:30 54° 49' 17" N  1° 15' 11" W  View metadata report for BODC series reference number 182614
1826261988-09-06 12:30 54° 49' 17" N  1° 15' 11" W  View metadata report for BODC series reference number 182626
1826381988-09-06 14:30 54° 49' 17" N  1° 15' 11" W  View metadata report for BODC series reference number 182638
1826511988-09-06 15:30 54° 49' 17" N  1° 15' 11" W  View metadata report for BODC series reference number 182651
1826631988-09-06 16:30 54° 49' 17" N  1° 15' 11" W  View metadata report for BODC series reference number 182663
1826751988-09-06 17:30 54° 49' 17" N  1° 15' 11" W  View metadata report for BODC series reference number 182675
1826871988-09-06 18:30 54° 49' 17" N  1° 15' 11" W  View metadata report for BODC series reference number 182687
1826991988-09-06 19:30 54° 49' 17" N  1° 15' 11" W  View metadata report for BODC series reference number 182699
1827061988-09-06 20:30 54° 49' 17" N  1° 15' 11" W  View metadata report for BODC series reference number 182706
1827181988-09-07 14:30 55° 15' 47" N  1° 29' 29" W  View metadata report for BODC series reference number 182718
1827311988-09-07 15:30 55° 15' 47" N  1° 29' 29" W  View metadata report for BODC series reference number 182731
1827431988-09-07 16:30 55° 15' 47" N  1° 29' 29" W  View metadata report for BODC series reference number 182743
1827551988-09-07 17:30 55° 15' 47" N  1° 29' 29" W  View metadata report for BODC series reference number 182755
1827671988-09-07 18:30 55° 15' 47" N  1° 29' 29" W  View metadata report for BODC series reference number 182767
1827791988-09-07 19:30 55° 15' 47" N  1° 29' 29" W  View metadata report for BODC series reference number 182779
1827801988-09-07 20:30 55° 15' 47" N  1° 29' 29" W  View metadata report for BODC series reference number 182780
1827921988-09-07 21:30 55° 15' 47" N  1° 29' 29" W  View metadata report for BODC series reference number 182792
1828111988-09-07 22:30 55° 15' 47" N  1° 29' 29" W  View metadata report for BODC series reference number 182811
1828231988-09-07 23:30 55° 15' 47" N  1° 29' 29" W  View metadata report for BODC series reference number 182823
1828351988-09-08 00:30 55° 15' 47" N  1° 29' 29" W  View metadata report for BODC series reference number 182835
1828471988-09-08 01:30 55° 15' 47" N  1° 29' 29" W  View metadata report for BODC series reference number 182847
1828591988-09-08 02:30 55° 15' 47" N  1° 29' 29" W  View metadata report for BODC series reference number 182859
1828601988-09-08 03:30 55° 15' 47" N  1° 29' 29" W  View metadata report for BODC series reference number 182860
1828721988-09-08 04:30 55° 15' 47" N  1° 29' 29" W  View metadata report for BODC series reference number 182872
1828841988-09-08 05:30 55° 15' 47" N  1° 29' 29" W  View metadata report for BODC series reference number 182884
1828961988-09-08 06:30 55° 15' 47" N  1° 29' 29" W  View metadata report for BODC series reference number 182896
1829031988-09-08 07:30 55° 15' 47" N  1° 29' 29" W  View metadata report for BODC series reference number 182903
1829151988-09-08 08:30 55° 15' 47" N  1° 29' 29" W  View metadata report for BODC series reference number 182915
1829271988-09-08 09:30 55° 15' 47" N  1° 29' 29" W  View metadata report for BODC series reference number 182927
1829391988-09-08 10:30 55° 15' 47" N  1° 29' 29" W  View metadata report for BODC series reference number 182939
1829401988-09-08 11:30 55° 15' 47" N  1° 29' 29" W  View metadata report for BODC series reference number 182940
1829521988-09-08 12:30 55° 15' 47" N  1° 29' 29" W  View metadata report for BODC series reference number 182952
1829641988-09-08 13:30 55° 15' 47" N  1° 29' 29" W  View metadata report for BODC series reference number 182964
1829761988-09-08 14:30 55° 15' 47" N  1° 29' 29" W  View metadata report for BODC series reference number 182976
1829881988-09-10 05:30 55° 2' 5" N  1° 22' 47" W  View metadata report for BODC series reference number 182988
1830031988-09-10 06:30 55° 2' 5" N  1° 22' 47" W  View metadata report for BODC series reference number 183003
1830151988-09-10 07:30 55° 2' 5" N  1° 22' 47" W  View metadata report for BODC series reference number 183015
1830271988-09-10 08:30 55° 2' 5" N  1° 22' 47" W  View metadata report for BODC series reference number 183027
1830391988-09-10 09:30 55° 2' 5" N  1° 22' 47" W  View metadata report for BODC series reference number 183039
1830401988-09-10 10:30 55° 2' 5" N  1° 22' 47" W  View metadata report for BODC series reference number 183040
1830521988-09-10 11:30 55° 2' 5" N  1° 22' 47" W  View metadata report for BODC series reference number 183052
1830641988-09-10 12:30 55° 2' 5" N  1° 22' 47" W  View metadata report for BODC series reference number 183064
1830761988-09-10 13:30 55° 2' 5" N  1° 22' 47" W  View metadata report for BODC series reference number 183076
1830881988-09-05 14:31 54° 59' 5" N  1° 21' 0" W  View metadata report for BODC series reference number 183088
1831071988-09-07 07:35 54° 49' 17" N  1° 15' 0" W  View metadata report for BODC series reference number 183107
1823501988-09-05 06:30 54° 59' 5" N  1° 20' 47" W  View metadata report for BODC series reference number 182350
1823621988-09-05 07:30 54° 59' 5" N  1° 20' 47" W  View metadata report for BODC series reference number 182362
1823741988-09-05 08:30 54° 59' 5" N  1° 20' 47" W  View metadata report for BODC series reference number 182374
1823861988-09-05 09:30 54° 59' 5" N  1° 20' 47" W  View metadata report for BODC series reference number 182386
1823981988-09-05 10:30 54° 59' 5" N  1° 20' 47" W  View metadata report for BODC series reference number 182398
1824051988-09-05 11:30 54° 59' 5" N  1° 20' 47" W  View metadata report for BODC series reference number 182405
1824171988-09-05 12:30 54° 59' 5" N  1° 20' 47" W  View metadata report for BODC series reference number 182417
1824291988-09-05 13:30 54° 59' 5" N  1° 20' 47" W  View metadata report for BODC series reference number 182429
1824301988-09-05 19:30 54° 49' 17" N  1° 15' 11" W  View metadata report for BODC series reference number 182430
1824421988-09-05 20:30 54° 49' 17" N  1° 15' 11" W  View metadata report for BODC series reference number 182442
1824541988-09-05 21:30 54° 49' 17" N  1° 15' 11" W  View metadata report for BODC series reference number 182454
1824661988-09-05 22:30 54° 49' 17" N  1° 15' 11" W  View metadata report for BODC series reference number 182466
1824781988-09-05 23:30 54° 49' 17" N  1° 15' 11" W  View metadata report for BODC series reference number 182478
1824911988-09-06 00:30 54° 49' 17" N  1° 15' 11" W  View metadata report for BODC series reference number 182491
1821651988-09-04 12:30 54° 59' 5" N  1° 20' 47" W  View metadata report for BODC series reference number 182165
1821771988-09-04 13:30 54° 59' 5" N  1° 20' 47" W  View metadata report for BODC series reference number 182177
1821891988-09-04 14:30 54° 59' 5" N  1° 20' 47" W  View metadata report for BODC series reference number 182189
1821901988-09-04 15:30 54° 59' 5" N  1° 20' 47" W  View metadata report for BODC series reference number 182190
1822081988-09-04 16:30 54° 59' 5" N  1° 20' 47" W  View metadata report for BODC series reference number 182208
1822211988-09-04 17:30 54° 59' 5" N  1° 20' 47" W  View metadata report for BODC series reference number 182221
1822331988-09-04 18:30 54° 59' 5" N  1° 20' 47" W  View metadata report for BODC series reference number 182233
1822451988-09-04 19:30 54° 59' 5" N  1° 20' 47" W  View metadata report for BODC series reference number 182245
1822571988-09-04 20:30 54° 59' 5" N  1° 20' 47" W  View metadata report for BODC series reference number 182257
1822691988-09-04 21:30 54° 59' 5" N  1° 20' 47" W  View metadata report for BODC series reference number 182269
1822701988-09-04 22:30 54° 59' 5" N  1° 20' 47" W  View metadata report for BODC series reference number 182270
1822821988-09-04 23:30 54° 59' 5" N  1° 20' 47" W  View metadata report for BODC series reference number 182282
1822941988-09-05 00:30 54° 59' 5" N  1° 20' 47" W  View metadata report for BODC series reference number 182294
1823011988-09-05 01:30 54° 59' 5" N  1° 20' 47" W  View metadata report for BODC series reference number 182301
1823131988-09-05 02:30 54° 59' 5" N  1° 20' 47" W  View metadata report for BODC series reference number 182313
1823251988-09-05 03:30 54° 59' 5" N  1° 20' 47" W  View metadata report for BODC series reference number 182325
1823371988-09-05 04:30 54° 59' 5" N  1° 20' 47" W  View metadata report for BODC series reference number 182337
1823491988-09-05 05:30 54° 59' 5" N  1° 20' 47" W  View metadata report for BODC series reference number 182349